Regional Weather Roundup
Issued by NWS

Home | Current Version | Previous Version | Text Only | Print | Product List | Glossary On
Versions: 1 2 3 4 5 6 7 8 9 10 11 12 13 14 15 16 17 18 19 20 21 22 23 24 25 26 27 28 29 30 31 32 33 34 35 36 37 38 39 40 41 42 43 44 45 46 47 48 49 50
000
ASUS43 KTOP 041008
RWRKS

WEATHER ROUNDUP FOR KANSAS
NATIONAL WEATHER SERVICE GOODLAND KS
500 AM CDT FRI SEP 04 2015

NOTE:  "FAIR" INDICATES FEW OR NO CLOUDS BELOW 12,000 FEET WITH NO
SIGNIFICANT WEATHER AND/OR OBSTRUCTIONS TO VISIBILITY.

KSZ001>006-013>018-027>032-041>047-041100-
NORTHWEST KANSAS

CITY           SKY/WX    TMP DP  RH WIND       PRES   REMARKS
GOODLAND       MOCLDY    65  55  70 W10       29.85R
HAYS           PTCLDY    77  57  50 S14       29.84R
HILL CITY      CLEAR     77  59  53 S14       29.80S
RUSSELL        PTCLDY    77  61  57 S20G29    29.83R
$$

KSZ061>065-074>080-084>089-041100-
SOUTHWEST KANSAS

CITY           SKY/WX    TMP DP  RH WIND       PRES   REMARKS
DODGE CITY     PTCLDY    71  58  63 S12       29.88S
ELKHART          N/A     68  52  56 SW9         N/A
GARDEN CITY    CLEAR     69  57  65 S9        29.85S
GREAT BEND     PTCLDY    75  61  60 S21       29.85S
LIBERAL        PTCLDY    73  55  53 S9        29.89S
PRATT          CLEAR     73  59  60 MISG      29.91R
$$

KSZ066>073-081>083-090>101-041100-
SOUTHEAST KANSAS

CITY           SKY/WX    TMP DP  RH WIND       PRES   REMARKS
CHANUTE        MOCLDY    72  68  87 SE7       29.94R
COFFEYVILLE    PTCLDY    71  68  90 S3        29.93S
HUTCHINSON     CLEAR     74  62  66 S9        29.89S
MEDICINE LODGE   N/A     74  62  66 SE8       29.89S
NEWTON         PTCLDY    72  61  68 S10       29.93S
PARSONS        PTCLDY    73  69  87 CALM      29.95R
WICHITA INTL   MOCLDY    72  64  76 S9        29.90S
WICHITA JABRA  CLEAR     71  65  81 S8        29.91R
WICHITA MCCONL CLEAR     71  63  75 SE8       29.91S
WINFIELD       CLEAR     72  65  78 SE7       29.93R
$$

KSZ007>012-019>026-033>040-048>060-102>105-041100-
NORTHEAST KANSAS

CITY           SKY/WX    TMP DP  RH WIND       PRES   REMARKS
CONCORDIA      MOCLDY    75  65  70 S9        29.87R
EMPORIA        MOCLDY    71  68  90 S12       29.92S
LAWRENCE       PTCLDY    71  67  87 SE6       29.93R
MANHATTAN      MOCLDY    75  67  76 S6        29.89R
MARYSVILLE     MOCLDY    72  68  88 S7        29.89R
OLATHE IND     PTCLDY    70  68  93 S7        29.95S
OLATHE EXE     PTCLDY    70  67  90 SE5       29.94S
SALINA         PTCLDY    78  63  59 S14       29.87R
TOPEKA BILLARD MOCLDY    75  67  76 S9        29.91S
TOPEKA FORBES  MOCLDY    73  67  81 S7        29.92S
$$


USA.gov is the U.S. government's official web portal to all federal, state and local government web resources and services.